This is the latest recevied weather packets stored in our database for station/object W8CWV-13. If no packets are shown the sender has not sent any weather packets the latest 10 day(s).
| Time | Temp. | Humidity | Pressure | Rain* | Wind** | Luminosity | Snow |
|---|---|---|---|---|---|---|---|
| 1777643539 | 16.67° C | 100% | 1025.7 hPa | - | - | - | - |
| 1777642965 | 16.11° C | 100% | 1026.1 hPa | - | - | - | - |
| 1777642392 | 15° C | 100% | 1026.6 hPa | - | - | - | - |
| 1777641819 | 16.67° C | 100% | 1027.2 hPa | - | - | - | - |
| 1777641245 | 15° C | 100% | 1027.9 hPa | - | - | - | - |
| 1777640673 | 13.89° C | 100% | 1027.9 hPa | - | - | - | - |
| 1777640101 | 13.89° C | 100% | 1027.9 hPa | - | - | - | - |
| 1777639524 | 13.89° C | 100% | 1028 hPa | - | - | - | - |
| 1777638956 | 12.22° C | 100% | 1027.4 hPa | - | - | - | - |
| 1777638372 | 11.67° C | 100% | 1025 hPa | - | - | - | - |
| 1777637800 | 10° C | 100% | 1019.5 hPa | - | - | - | - |
| 1777637228 | 10° C | 100% | 1008.5 hPa | - | - | - | - |
| 1777636653 | 7.78° C | 100% | 1005.3 hPa | - | - | - | - |
| 1777636078 | 6.67° C | 100% | 1005 hPa | - | - | - | - |
| 1777635504 | 3.89° C | 100% | 1006.4 hPa | - | - | - | - |
| 1777634929 | 3.89° C | 100% | 1006.4 hPa | - | - | - | - |
| 1777634361 | 3.33° C | 100% | 1006.5 hPa | - | - | - | - |
| 1777633785 | 2.78° C | 100% | 1006.6 hPa | - | - | - | - |
| 1777633209 | 2.22° C | 100% | 1006.8 hPa | - | - | - | - |
| 1777632638 | 1.67° C | 100% | 1006.9 hPa | - | - | - | - |
| 1777632070 | 1.67° C | 100% | 1007.1 hPa | - | - | - | - |
| 1777631494 | 1.67° C | 100% | 1007.5 hPa | - | - | - | - |
| 1777630926 | 1.11° C | 100% | 1008 hPa | - | - | - | - |
| 1777630348 | 0.56° C | 100% | 1008.8 hPa | - | - | - | - |
| 1777629777 | 1.11° C | 100% | 1009.2 hPa | - | - | - | - |
* Rain since midnight (hover to see other rain measurements)
** Current wind speed in m/s (hover to see current wind gust speed)